Regional Weather Roundup
Issued by NWS

Home | Current Version | Previous Version | Text Only | Print | Product List | Glossary Off
Versions: 1 2 3 4 5 6 7 8 9 10 11 12 13 14 15 16 17 18 19 20 21 22 23 24 25 26 27 28 29 30 31 32 33 34 35 36 37 38 39 40 41 42 43 44 45 46 47 48 49 50

000
ASUS44 KMEG 281110
RWRTN
TENNESSEE HOURLY STATE WEATHER ROUNDUP
NATIONAL WEATHER SERVICE MEMPHIS TN
600 AM CDT WED SEP 28 2016

TNZ002-004-019-021-049-052-054-088>092-281200-
WEST TENNESSEE

CITY           SKY/WX    TMP DP  RH WIND       PRES   REMARKS
MEMPHIS INTL   CLEAR     59  48  67 SW3       29.94
NWS MEMPHIS      N/A     53 N/A N/A MISG        N/A
JACKSON          N/A    N/A N/A N/A MISG      29.93
DYERSBURG      CLEAR    N/A N/A N/A MISG        N/A
UNION CITY     CLEAR     50  48  93 CALM      29.89S
PARIS          CLEAR     54  45  71 CALM      29.91S
HUNTINGDON     CLEAR     54  48  82 CALM      29.90S
LEXINGTON      CLEAR     48  48 100 CALM      29.93F
$$

TNZ008-025-027-028-033-062-065-066-281200-
NORTH MIDDLE TENNESSEE

CITY           SKY/WX    TMP DP  RH WIND       PRES   REMARKS
NASHVILLE      CLEAR     50  47  89 S7        29.93
PORTLAND       CLEAR     52  50  93 S7        29.92S
CLARKSVILLE    CLEAR     55  47  74 S3        29.89
SMYRNA         CLEAR     48  47  96 CALM      29.95
COOKEVILLE     CLEAR     43  43 100 CALM      29.94F
GALLATIN       CLEAR     48  48 100 CALM      29.96S
CROSSVILLE     CLEAR     45  42  89 CALM      29.98
$$

TNZ061-075-076-078-094-096-097-281200-
SOUTH MIDDLE TENNESSEE

CITY           SKY/WX    TMP DP  RH WIND       PRES   REMARKS
FAYETTEVILLE   CLOUDY    50  46  87 CALM      29.96S
TULLAHOMA      CLEAR     43  39  87 CALM      29.97S
WINCHESTER     CLEAR     45  43  93 CALM      29.97S
MCMINNVILLE    CLEAR     45  45 100 CALM      29.96S
COLUMBIA       CLEAR    N/A N/A N/A CALM      29.93F
SHELBYVILLE    CLEAR     48  46  93 E3        29.97R
$$

TNZ017-018-042-046-047-281200-
NORTHEAST TENNESSEE

CITY           SKY/WX    TMP DP  RH WIND       PRES   REMARKS
TRI CITIES     FOG       59  59 100 CALM      29.96  VSB 1/2
ELIZABETHTON     N/A     57  57 100 CALM      29.95F
$$

TNZ012-013-036-069-073-074-281200-
CENTRAL EAST TENNESSEE

CITY           SKY/WX    TMP DP  RH WIND       PRES   REMARKS
KNOXVILLE      PTCLDY    56  52  86 CALM      29.95
OAK RIDGE      PTCLDY    50  47  89 CALM      29.97
DOWNTOWN KNOXV PTCLDY    54  54 100 CALM      29.96R
GATLINBURG     PTCLDY    57  57 100 CALM      29.95S
MORRISTOWN     PTCLDY    55  52  88 CALM      29.95S
JACKSBORO      CLEAR     46  46 100 CALM      29.99S
$$

TNZ083-085-099-281200-
SOUTHEAST TENNESSEE

CITY           SKY/WX    TMP DP  RH WIND       PRES   REMARKS
CHATTANOOGA    PTCLDY    58  52  80 CALM      29.96
$$

SKY/WX REPORTED AS FAIR MEANS FEW OR NO CLOUDS BELOW
12 THOUSAND FEET.





USA.gov is the U.S. government's official web portal to all federal, state and local government web resources and services.